| time (UTC) | temp F | wind direction | speed MPH | gust MPH | rain 1hr in | rain 24hr in | rain mn in | humidity % | barometer mb |
| 20260507105021 | 63 | 16 | 5.0 | 10.0 | 0.00 | 0.00 | 0.00 | 72 | 1011.6 |
| 20260507104045 | 63 | 24 | 3.0 | 7.0 | 0.00 | 0.00 | 0.00 | 72 | 1011.7 |
| 20260507103129 | 62 | 358 | 3.0 | 7.0 | 0.00 | 0.00 | 0.00 | 72 | 1011.6 |
| 20260507102029 | 61 | 334 | 3.0 | 6.0 | 0.00 | 0.00 | 0.00 | 73 | 1011.6 |
| 20260507101053 | 59 | 314 | 4.0 | 9.0 | 0.00 | 0.00 | 0.00 | 76 | 1011.5 |
| 20260507100117 | 59 | 345 | 3.0 | 6.0 | 0.00 | 0.00 | 0.00 | 77 | 1011.5 |
| 20260507095037 | 60 | 14 | 3.0 | 6.0 | 0.00 | 0.00 | 0.00 | 76 | 1011.6 |
| 20260507094101 | 60 | 26 | 2.0 | 6.0 | 0.00 | 0.00 | 0.00 | 74 | 1011.6 |
| 20260507093021 | 60 | 31 | 1.0 | 4.0 | 0.00 | 0.00 | 0.00 | 75 | 1011.6 |
| 20260507092046 | 58 | 26 | 2.0 | 4.0 | 0.00 | 0.00 | 0.00 | 80 | 1011.6 |
| 20260507091109 | 56 | 23 | 2.0 | 3.0 | 0.00 | 0.00 | 0.00 | 85 | 1011.8 |
| 20260507090029 | 56 | 47 | 1.0 | 3.0 | 0.00 | 0.00 | 0.00 | 89 | 1011.8 |
| 20260507085113 | 54 | 104 | 1.0 | 3.0 | 0.00 | 0.00 | 0.00 | 91 | 1011.8 |
| 20260507084117 | 53 | 87 | 1.0 | 2.0 | 0.00 | 0.00 | 0.00 | 93 | 1011.9 |
| 20260507083048 | 52 | 140 | 3.0 | 4.0 | 0.00 | 0.00 | 0.00 | 95 | 1012.1 |
| 20260507082121 | 51 | 137 | 3.0 | 6.0 | 0.00 | 0.00 | 0.00 | 95 | 1012.0 |
| 20260507081021 | 51 | 110 | 2.0 | 4.0 | 0.00 | 0.00 | 0.00 | 96 | 1012.3 |
| 20260507080046 | 50 | 136 | 3.0 | 6.0 | 0.00 | 0.00 | 0.00 | 96 | 1012.3 |
| 20260507075130 | 49 | 59 | 3.0 | 6.0 | 0.00 | 0.00 | 0.00 | 96 | 1012.3 |
| 20260507074029 | 49 | 147 | 4.0 | 7.0 | 0.00 | 0.00 | 0.00 | 96 | 1012.3 |
| 20260507073053 | 49 | 122 | 4.0 | 7.0 | 0.00 | 0.00 | 0.00 | 96 | 1012.2 |
| 20260507072138 | 49 | 108 | 3.0 | 6.0 | 0.00 | 0.00 | 0.00 | 96 | 1012.2 |
| 20260507071037 | 48 | 112 | 3.0 | 6.0 | 0.00 | 0.01 | 0.00 | 96 | 1012.4 |
| 20260507065021 | 48 | 130 | 3.0 | 6.0 | 0.00 | 0.02 | 0.00 | 96 | 1012.4 |
| 20260507064044 | 48 | 149 | 3.0 | 6.0 | 0.00 | 0.02 | 0.00 | 96 | 1012.5 |
| 20260507063109 | 47 | 119 | 3.0 | 4.0 | 0.00 | 0.02 | 0.00 | 96 | 1012.4 |
| 20260507062030 | 47 | 142 | 4.0 | 6.0 | 0.00 | 0.02 | 0.00 | 96 | 1012.5 |
| 20260507061053 | 47 | 117 | 2.0 | 6.0 | 0.00 | 0.02 | 0.00 | 95 | 1012.6 |
| 20260507060116 | 47 | 110 | 3.0 | 6.0 | 0.00 | 0.02 | 0.00 | 95 | 1012.6 |
| 20260507055038 | 47 | 134 | 3.0 | 6.0 | 0.00 | 0.02 | 0.00 | 95 | 1012.6 |
| 20260507054102 | 47 | 113 | 3.0 | 4.0 | 0.00 | 0.02 | 0.00 | 95 | 1012.6 |
| 20260507053022 | 47 | 85 | 1.0 | 3.0 | 0.00 | 0.02 | 0.00 | 95 | 1012.4 |
| 20260507052046 | 47 | 108 | 3.0 | 4.0 | 0.00 | 0.02 | 0.00 | 95 | 1012.6 |
| 20260507051109 | 47 | 104 | 2.0 | 3.0 | 0.00 | 0.02 | 0.00 | 95 | 1012.5 |
| 20260507050028 | 47 | 129 | 3.0 | 4.0 | 0.00 | 0.03 | 0.00 | 95 | 1012.7 |
| 20260507045053 | 48 | 128 | 3.0 | 4.0 | 0.00 | 0.03 | 0.00 | 95 | 1012.7 |
| 20260507044117 | 48 | 140 | 3.0 | 3.0 | 0.00 | 0.03 | 0.00 | 95 | 1012.9 |
| 20260507043037 | 48 | 90 | 2.0 | 3.0 | 0.00 | 0.03 | 0.00 | 95 | 1012.9 |
| 20260507042102 | 48 | 120 | 4.0 | 7.0 | 0.00 | 0.03 | 0.00 | 95 | 1013.0 |
| 20260507041022 | 48 | 110 | 2.0 | 4.0 | 0.00 | 0.03 | 0.00 | 95 | 1013.1 |
| 20260507040046 | 48 | 105 | 2.0 | 4.0 | 0.00 | 0.03 | 0.00 | 95 | 1013.1 |
| 20260507035109 | 48 | 100 | 2.0 | 3.0 | 0.00 | 0.03 | 0.00 | 95 | 1013.1 |
| 20260507034050 | 48 | 90 | 2.0 | 4.0 | 0.00 | 0.03 | 0.00 | 95 | 1013.1 |
| 20260507033054 | 48 | 118 | 2.0 | 4.0 | 0.00 | 0.03 | 0.00 | 95 | 1013.1 |
| 20260507032117 | 48 | 138 | 4.0 | 4.0 | 0.00 | 0.03 | 0.00 | 94 | 1013.0 |
| 20260507031038 | 48 | 123 | 2.0 | 4.0 | 0.00 | 0.03 | 0.00 | 94 | 1013.1 |
| 20260507030101 | 48 | 87 | 1.0 | 2.0 | 0.00 | 0.03 | 0.00 | 94 | 1013.0 |
| 20260507025021 | 48 | 95 | 2.0 | 3.0 | 0.00 | 0.03 | 0.00 | 94 | 1013.1 |
| 20260507024045 | 48 | 69 | 0.0 | 1.0 | 0.00 | 0.03 | 0.00 | 94 | 1013.1 |
| 20260507023109 | 48 | 75 | 1.0 | 1.0 | 0.00 | 0.03 | 0.00 | 94 | 1013.2 |
| 20260507022029 | 48 | 88 | 1.0 | 2.0 | 0.00 | 0.03 | 0.00 | 94 | 1013.3 |
| 20260507021053 | 49 | 105 | 2.0 | 3.0 | 0.00 | 0.07 | 0.00 | 93 | 1013.4 |
| 20260507020118 | 49 | 110 | 2.0 | 4.0 | 0.00 | 0.09 | 0.00 | 93 | 1013.4 |
| 20260507015037 | 50 | 124 | 2.0 | 6.0 | 0.00 | 0.13 | 0.00 | 93 | 1013.5 |
| 20260507014101 | 50 | 93 | 2.0 | 3.0 | 0.00 | 0.13 | 0.00 | 92 | 1013.5 |
| 20260507013021 | 50 | 85 | 1.0 | 2.0 | 0.00 | 0.13 | 0.00 | 92 | 1013.6 |
| 20260507012105 | 51 | 84 | 1.0 | 3.0 | 0.00 | 0.14 | 0.00 | 92 | 1013.7 |
| 20260507011109 | 51 | 79 | 0.0 | 1.0 | 0.00 | 0.15 | 0.00 | 91 | 1013.7 |
| 20260507010029 | 51 | 78 | 1.0 | 2.0 | 0.00 | 0.15 | 0.00 | 91 | 1013.8 |
| 20260507005053 | 51 | 71 | 0.0 | 1.0 | 0.00 | 0.15 | 0.00 | 91 | 1013.8 |
| 20260507004023 | 52 | 81 | 0.0 | 2.0 | 0.00 | 0.15 | 0.00 | 90 | 1013.9 |
| 20260507003037 | 52 | 81 | 1.0 | 2.0 | 0.00 | 0.15 | 0.00 | 90 | 1014.0 |
| 20260507002101 | 53 | 41 | 0.0 | 1.0 | 0.00 | 0.15 | 0.00 | 89 | 1014.0 |
| 20260507001021 | 53 | 0.0 | 0.0 | 0.00 | 0.15 | 0.00 | 89 | 1014.1 | |
| 20260507000046 | 53 | 0.0 | 0.0 | 0.00 | 0.15 | 0.00 | 88 | 1014.1 | |
| 20260506235129 | 53 | 0.0 | 0.0 | 0.00 | 0.15 | 0.00 | 88 | 1014.2 | |
| 20260506234029 | 54 | 0.0 | 0.0 | 0.00 | 0.15 | 0.00 | 87 | 1014.2 | |
| 20260506233053 | 53 | 42 | 0.0 | 1.0 | 0.00 | 0.15 | 0.00 | 87 | 1014.2 |
| 20260506232117 | 54 | 0.0 | 0.0 | 0.00 | 0.15 | 0.00 | 87 | 1014.3 | |
| 20260506231100 | 54 | 0.0 | 0.0 | 0.00 | 0.15 | 0.00 | 86 | 1014.4 | |
| 20260506225021 | 55 | 57 | 0.0 | 2.0 | 0.00 | 0.15 | 0.00 | 85 | 1014.6 |
| 20260506224126 | 55 | 50 | 0.0 | 1.0 | 0.00 | 0.15 | 0.00 | 84 | 1014.6 |
| 20260506223109 | 55 | 43 | 0.0 | 1.0 | 0.00 | 0.15 | 0.00 | 84 | 1014.7 |
| 20260506222029 | 56 | 10 | 1.0 | 3.0 | 0.00 | 0.15 | 0.00 | 84 | 1014.9 |
| 20260506221113 | 56 | 13 | 2.0 | 4.0 | 0.00 | 0.15 | 0.00 | 84 | 1014.9 |
| 20260506220117 | 56 | 22 | 2.0 | 4.0 | 0.00 | 0.15 | 0.00 | 84 | 1015.1 |
| 20260506215036 | 55 | 25 | 1.0 | 3.0 | 0.00 | 0.15 | 0.15 | 84 | 1015.0 |
| 20260506214121 | 56 | 40 | 0.0 | 2.0 | 0.00 | 0.15 | 0.15 | 84 | 1015.1 |
| 20260506213022 | 56 | 40 | 0.0 | 1.0 | 0.00 | 0.15 | 0.15 | 83 | 1015.1 |
| 20260506212045 | 56 | 17 | 1.0 | 3.0 | 0.00 | 0.15 | 0.15 | 83 | 1015.1 |
| 20260506211129 | 56 | 25 | 1.0 | 3.0 | 0.00 | 0.15 | 0.15 | 83 | 1015.1 |
| 20260506210029 | 56 | 41 | 0.0 | 4.0 | 0.00 | 0.15 | 0.15 | 83 | 1015.1 |
| 20260506205053 | 56 | 41 | 2.0 | 6.0 | 0.00 | 0.15 | 0.15 | 82 | 1015.1 |
| 20260506204117 | 56 | 11 | 2.0 | 6.0 | 0.00 | 0.15 | 0.15 | 82 | 1015.1 |
| 20260506203037 | 56 | 4 | 3.0 | 7.0 | 0.00 | 0.15 | 0.15 | 81 | 1014.9 |
| 20260506202101 | 56 | 20 | 3.0 | 7.0 | 0.00 | 0.15 | 0.15 | 80 | 1015.0 |
| 20260506201021 | 56 | 18 | 2.0 | 6.0 | 0.00 | 0.15 | 0.15 | 79 | 1015.0 |
| 20260506200045 | 56 | 6 | 3.0 | 8.0 | 0.00 | 0.15 | 0.15 | 78 | 1015.0 |
| 20260506195109 | 57 | 15 | 2.0 | 7.0 | 0.00 | 0.15 | 0.15 | 77 | 1014.9 |
| 20260506194029 | 57 | 355 | 5.0 | 9.0 | 0.00 | 0.15 | 0.15 | 78 | 1014.8 |
| 20260506193053 | 57 | 347 | 4.0 | 8.0 | 0.00 | 0.15 | 0.15 | 79 | 1015.0 |
| 20260506192117 | 57 | 12 | 4.0 | 8.0 | 0.00 | 0.15 | 0.15 | 79 | 1015.0 |
| 20260506191058 | 57 | 9 | 4.0 | 8.0 | 0.00 | 0.15 | 0.15 | 79 | 1014.8 |
| 20260506190101 | 57 | 358 | 5.0 | 10.0 | 0.00 | 0.15 | 0.15 | 79 | 1014.8 |
| 20260506185021 | 58 | 7 | 6.0 | 9.0 | 0.00 | 0.15 | 0.15 | 78 | 1014.9 |
| 20260506184044 | 58 | 342 | 4.0 | 9.0 | 0.00 | 0.15 | 0.15 | 79 | 1014.9 |
| 20260506183108 | 58 | 350 | 5.0 | 9.0 | 0.00 | 0.15 | 0.15 | 77 | 1014.9 |
| 20260506182029 | 58 | 336 | 6.0 | 10.0 | 0.00 | 0.15 | 0.15 | 76 | 1015.0 |
| 20260506181053 | 59 | 338 | 4.0 | 9.0 | 0.00 | 0.15 | 0.15 | 75 | 1015.0 |
| 20260506180117 | 59 | 12 | 4.0 | 8.0 | 0.00 | 0.15 | 0.15 | 76 | 1014.9 |
| 20260506175038 | 59 | 346 | 5.0 | 9.0 | 0.00 | 0.15 | 0.15 | 75 | 1015.1 |
| 20260506174100 | 59 | 18 | 5.0 | 11.0 | 0.00 | 0.15 | 0.15 | 73 | 1015.3 |
| 20260506173022 | 59 | 3 | 6.0 | 11.0 | 0.00 | 0.15 | 0.15 | 74 | 1015.3 |
| 20260506172045 | 59 | 347 | 5.0 | 10.0 | 0.00 | 0.15 | 0.15 | 75 | 1015.3 |
| 20260506171109 | 59 | 29 | 5.0 | 9.0 | 0.00 | 0.15 | 0.15 | 76 | 1015.4 |
| 20260506170029 | 60 | 338 | 5.0 | 9.0 | 0.00 | 0.15 | 0.15 | 72 | 1015.3 |
| 20260506165053 | 61 | 331 | 6.0 | 11.0 | 0.00 | 0.15 | 0.15 | 70 | 1015.5 |
| 20260506164117 | 60 | 1 | 5.0 | 10.0 | 0.00 | 0.15 | 0.15 | 71 | 1015.4 |
| 20260506163037 | 60 | 2 | 4.0 | 8.0 | 0.00 | 0.15 | 0.15 | 73 | 1015.5 |
| 20260506162102 | 59 | 0 | 3.0 | 9.0 | 0.00 | 0.15 | 0.15 | 70 | 1015.4 |
| 20260506161021 | 59 | 11 | 3.0 | 7.0 | 0.00 | 0.15 | 0.15 | 73 | 1015.5 |
| 20260506160045 | 60 | 337 | 3.0 | 10.0 | 0.00 | 0.15 | 0.15 | 68 | 1015.6 |
| 20260506155109 | 60 | 1 | 4.0 | 9.0 | 0.00 | 0.15 | 0.15 | 70 | 1015.4 |
| 20260506154130 | 61 | 3 | 3.0 | 8.0 | 0.00 | 0.15 | 0.15 | 72 | 1015.6 |
| 20260506153053 | 61 | 357 | 5.0 | 10.0 | 0.00 | 0.15 | 0.15 | 71 | 1015.6 |
| 20260506152137 | 63 | 357 | 4.0 | 9.0 | 0.00 | 0.15 | 0.15 | 66 | 1015.6 |
| 20260506151037 | 62 | 3 | 5.0 | 9.0 | 0.00 | 0.15 | 0.15 | 67 | 1015.7 |
| 20260506150122 | 62 | 341 | 3.0 | 10.0 | 0.00 | 0.15 | 0.15 | 64 | 1015.9 |
| 20260506145022 | 62 | 357 | 3.0 | 8.0 | 0.00 | 0.15 | 0.15 | 65 | 1015.9 |
| 20260506144045 | 62 | 23 | 2.0 | 6.0 | 0.00 | 0.15 | 0.15 | 66 | 1016.0 |
| 20260506143109 | 62 | 5 | 3.0 | 8.0 | 0.00 | 0.15 | 0.15 | 68 | 1015.9 |
| 20260506142029 | 61 | 352 | 3.0 | 10.0 | 0.00 | 0.15 | 0.15 | 68 | 1016.1 |
| 20260506141053 | 62 | 34 | 4.0 | 8.0 | 0.00 | 0.15 | 0.15 | 66 | 1016.1 |
| 20260506140117 | 65 | 13 | 4.0 | 7.0 | 0.00 | 0.15 | 0.15 | 63 | 1016.3 |
| 20260506135038 | 63 | 359 | 3.0 | 10.0 | 0.00 | 0.15 | 0.15 | 65 | 1016.3 |
| 20260506134101 | 62 | 352 | 4.0 | 9.0 | 0.00 | 0.15 | 0.15 | 69 | 1016.2 |
| 20260506133021 | 63 | 23 | 4.0 | 9.0 | 0.00 | 0.15 | 0.15 | 67 | 1016.3 |
| 20260506132045 | 62 | 359 | 2.0 | 7.0 | 0.00 | 0.15 | 0.15 | 67 | 1016.4 |
| 20260506131130 | 62 | 15 | 4.0 | 8.0 | 0.00 | 0.15 | 0.15 | 66 | 1016.4 |
| 20260506130029 | 61 | 2 | 4.0 | 7.0 | 0.00 | 0.15 | 0.15 | 69 | 1016.4 |
| 20260506125053 | 62 | 360 | 3.0 | 8.0 | 0.00 | 0.15 | 0.15 | 69 | 1016.5 |
| 20260506124117 | 63 | 2 | 4.0 | 9.0 | 0.00 | 0.15 | 0.15 | 68 | 1016.5 |
| 20260506123037 | 61 | 6 | 2.0 | 9.0 | 0.00 | 0.15 | 0.15 | 70 | 1016.5 |
| 20260506122100 | 60 | 10 | 4.0 | 9.0 | 0.00 | 0.15 | 0.15 | 71 | 1016.7 |
| 20260506121022 | 61 | 14 | 3.0 | 9.0 | 0.00 | 0.19 | 0.15 | 69 | 1016.7 |
| 20260506120045 | 63 | 31 | 4.0 | 8.0 | 0.00 | 0.19 | 0.15 | 66 | 1016.7 |
| 20260506115229 | 63 | 358 | 2.0 | 7.0 | 0.00 | 0.19 | 0.15 | 67 | 1016.8 |
| 20260506114029 | 62 | 10 | 3.0 | 7.0 | 0.00 | 0.19 | 0.15 | 66 | 1016.9 |
| 20260506113053 | 61 | 36 | 2.0 | 6.0 | 0.00 | 0.19 | 0.15 | 69 | 1016.9 |
| 20260506112117 | 60 | 337 | 4.0 | 8.0 | 0.00 | 0.19 | 0.15 | 72 | 1017.0 |
| 20260506111036 | 61 | 19 | 2.0 | 7.0 | 0.00 | 0.19 | 0.15 | 71 | 1017.1 |